| time (UTC) | temp C | wind direction | speed KPH | gust KPH | rain 1hr cm | rain 24hr cm | rain mn cm | humidity % | barometer mb |
| 20260505223821 | 5 | 92 | 32.2 | 80.5 | 0.00 | 0.00 | 0.00 | 68 | 797.0 |
| 20260505222812 | 5 | 92 | 32.2 | 80.5 | 0.00 | 0.00 | 0.00 | 67 | 796.9 |
| 20260505221805 | 5 | 92 | 32.2 | 80.5 | 0.00 | 0.00 | 0.00 | 68 | 796.9 |
| 20260505220754 | 6 | 92 | 32.2 | 80.5 | 0.00 | 0.00 | 0.00 | 68 | 796.9 |
| 20260505215743 | 6 | 92 | 32.2 | 80.5 | 0.00 | 0.00 | 0.00 | 69 | 796.8 |
| 20260505214735 | 6 | 92 | 32.2 | 80.5 | 0.00 | 0.00 | 0.00 | 69 | 796.7 |
| 20260505212720 | 6 | 92 | 32.2 | 80.5 | 0.00 | 0.00 | 0.00 | 69 | 796.7 |
| 20260505211709 | 6 | 92 | 32.2 | 80.5 | 0.00 | 0.00 | 0.00 | 69 | 796.6 |
| 20260505210659 | 8 | 92 | 32.2 | 80.5 | 0.00 | 0.00 | 0.00 | 69 | 796.7 |
| 20260505205650 | 8 | 92 | 32.2 | 80.5 | 0.00 | 0.00 | 0.00 | 69 | 796.7 |
| 20260505204642 | 8 | 92 | 32.2 | 80.5 | 0.00 | 0.00 | 0.00 | 69 | 796.8 |
| 20260505202625 | 8 | 92 | 32.2 | 80.5 | 0.00 | 0.00 | 0.00 | 69 | 796.9 |
| 20260505201617 | 6 | 92 | 32.2 | 80.5 | 0.00 | 0.00 | 0.00 | 68 | 796.7 |
| 20260505195602 | 7 | 92 | 32.2 | 80.5 | 0.00 | 0.00 | 0.00 | 69 | 796.9 |
| 20260505192531 | 8 | 92 | 32.2 | 80.5 | 0.00 | 0.00 | 0.00 | 69 | 796.9 |
| 20260505191520 | 8 | 92 | 32.2 | 80.5 | 0.00 | 0.00 | 0.00 | 69 | 796.9 |
| 20260505190512 | 8 | 92 | 32.2 | 80.5 | 0.00 | 0.00 | 0.00 | 69 | 797.1 |
| 20260505185504 | 8 | 92 | 32.2 | 80.5 | 0.00 | 0.00 | 0.00 | 68 | 797.1 |
| 20260505184456 | 7 | 92 | 32.2 | 80.5 | 0.00 | 0.00 | 0.00 | 68 | 797.2 |
| 20260505183447 | 7 | 92 | 32.2 | 80.5 | 0.00 | 0.00 | 0.00 | 68 | 797.4 |
| 20260505182439 | 7 | 92 | 32.2 | 80.5 | 0.00 | 0.00 | 0.00 | 67 | 797.6 |
| 20260505180421 | 7 | 92 | 32.2 | 80.5 | 0.00 | 0.00 | 0.00 | 68 | 797.5 |
| 20260505175413 | 7 | 92 | 32.2 | 80.5 | 0.00 | 0.00 | 0.00 | 67 | 797.5 |
| 20260505174404 | 7 | 92 | 32.2 | 80.5 | 0.00 | 0.00 | 0.00 | 68 | 797.7 |
| 20260505171335 | 7 | 92 | 32.2 | 80.5 | 0.00 | 0.00 | 0.00 | 67 | 798.0 |
| 20260505170327 | 7 | 92 | 32.2 | 80.5 | 0.00 | 0.00 | 0.00 | 67 | 798.1 |
| 20260505165317 | 7 | 92 | 32.2 | 80.5 | 0.00 | 0.00 | 0.00 | 67 | 798.1 |
| 20260505164309 | 7 | 92 | 32.2 | 80.5 | 0.00 | 0.00 | 0.00 | 67 | 798.2 |
| 20260505163300 | 8 | 92 | 32.2 | 80.5 | 0.00 | 0.00 | 0.00 | 67 | 798.3 |
| 20260505162251 | 8 | 92 | 32.2 | 80.5 | 0.00 | 0.00 | 0.00 | 67 | 798.4 |
| 20260505161242 | 8 | 92 | 32.2 | 80.5 | 0.00 | 0.00 | 0.00 | 67 | 798.4 |
| 20260505160234 | 8 | 92 | 32.2 | 80.5 | 0.00 | 0.00 | 0.00 | 66 | 798.5 |
| 20260505153153 | 9 | 92 | 32.2 | 80.5 | 0.00 | 0.00 | 0.00 | 67 | 798.6 |
| 20260505152137 | 9 | 92 | 32.2 | 80.5 | 0.00 | 0.00 | 0.00 | 67 | 798.4 |
| 20260505151120 | 9 | 92 | 32.2 | 80.5 | 0.00 | 0.00 | 0.00 | 67 | 798.4 |
| 20260505150105 | 10 | 92 | 32.2 | 80.5 | 0.00 | 0.00 | 0.00 | 67 | 798.3 |
| 20260505124731 | 10 | 92 | 32.2 | 80.5 | 0.00 | 0.00 | 0.00 | 67 | 798.1 |
| 20260505122701 | 10 | 92 | 32.2 | 80.5 | 0.00 | 0.00 | 0.00 | 67 | 798.0 |
| 20260505121645 | 10 | 92 | 32.2 | 80.5 | 0.00 | 0.00 | 0.00 | 68 | 798.0 |
| 20260505120630 | 10 | 92 | 32.2 | 80.5 | 0.00 | 0.00 | 0.00 | 68 | 798.0 |
| 20260505115617 | 10 | 92 | 32.2 | 80.5 | 0.00 | 0.00 | 0.00 | 68 | 797.6 |
| 20260505114601 | 10 | 92 | 32.2 | 80.5 | 0.00 | 0.00 | 0.00 | 68 | 797.7 |
| 20260505113544 | 10 | 92 | 32.2 | 80.5 | 0.00 | 0.00 | 0.00 | 68 | 797.4 |
| 20260505111514 | 10 | 92 | 32.2 | 80.5 | 0.00 | 0.00 | 0.00 | 68 | 797.4 |
| 20260505110458 | 10 | 92 | 32.2 | 80.5 | 0.00 | 0.00 | 0.00 | 67 | 797.2 |
| 20260505101341 | 11 | 92 | 32.2 | 80.5 | 0.00 | 0.00 | 0.00 | 67 | 796.8 |
| 20260505100324 | 11 | 92 | 32.2 | 80.5 | 0.00 | 0.00 | 0.00 | 67 | 796.8 |
| 20260505095312 | 11 | 92 | 32.2 | 80.5 | 0.00 | 0.00 | 0.00 | 67 | 796.7 |
| 20260505094303 | 11 | 92 | 32.2 | 80.5 | 0.00 | 0.00 | 0.00 | 67 | 796.7 |
| 20260505093256 | 11 | 92 | 32.2 | 80.5 | 0.00 | 0.00 | 0.00 | 67 | 796.7 |
| 20260505091239 | 12 | 92 | 32.2 | 80.5 | 0.00 | 0.00 | 0.00 | 67 | 796.4 |
| 20260505090230 | 12 | 92 | 32.2 | 80.5 | 0.00 | 0.00 | 0.00 | 66 | 796.4 |
| 20260505085222 | 12 | 92 | 32.2 | 80.5 | 0.00 | 0.00 | 0.00 | 66 | 796.2 |
| 20260505084212 | 12 | 92 | 32.2 | 80.5 | 0.00 | 0.00 | 0.00 | 66 | 796.3 |
| 20260505083204 | 12 | 92 | 32.2 | 80.5 | 0.00 | 0.00 | 0.00 | 66 | 796.2 |
| 20260505082156 | 12 | 92 | 32.2 | 80.5 | 0.00 | 0.00 | 0.00 | 65 | 796.2 |
| 20260505081147 | 12 | 92 | 32.2 | 80.5 | 0.00 | 0.00 | 0.00 | 65 | 796.3 |
| 20260505080138 | 13 | 92 | 32.2 | 80.5 | 0.00 | 0.00 | 0.00 | 65 | 796.3 |
| 20260505075130 | 13 | 92 | 32.2 | 80.5 | 0.00 | 0.00 | 0.00 | 64 | 796.0 |
| 20260505074119 | 14 | 92 | 32.2 | 80.5 | 0.00 | 0.00 | 0.00 | 64 | 796.2 |
| 20260505073111 | 15 | 92 | 32.2 | 80.5 | 0.00 | 0.00 | 0.00 | 65 | 796.1 |
| 20260505072103 | 15 | 92 | 32.2 | 80.5 | 0.00 | 0.00 | 0.00 | 65 | 796.1 |
| 20260505071055 | 15 | 92 | 32.2 | 80.5 | 0.00 | 0.00 | 0.00 | 65 | 796.3 |
| 20260505070046 | 13 | 92 | 32.2 | 80.5 | 0.00 | 0.00 | 0.00 | 65 | 796.3 |
| 20260505065037 | 15 | 92 | 32.2 | 80.5 | 0.00 | 0.00 | 0.00 | 65 | 796.4 |
| 20260505064028 | 15 | 92 | 32.2 | 80.5 | 0.00 | 0.00 | 0.00 | 65 | 796.5 |
| 20260505063020 | 16 | 92 | 32.2 | 80.5 | 0.00 | 0.00 | 0.00 | 65 | 796.5 |
| 20260505062013 | 13 | 92 | 32.2 | 80.5 | 0.00 | 0.00 | 0.00 | 64 | 796.8 |
| 20260505053934 | 15 | 92 | 32.2 | 80.5 | 0.00 | 0.00 | 0.00 | 66 | 797.1 |
| 20260505052927 | 14 | 92 | 32.2 | 80.5 | 0.00 | 0.00 | 0.00 | 66 | 797.2 |
| 20260505051919 | 14 | 92 | 32.2 | 80.5 | 0.00 | 0.00 | 0.00 | 66 | 797.3 |
| 20260505040819 | 14 | 92 | 32.2 | 80.5 | 0.00 | 0.00 | 0.00 | 67 | 798.1 |
| 20260505035810 | 14 | 92 | 32.2 | 80.5 | 0.00 | 0.00 | 0.00 | 68 | 798.1 |
| 20260505034801 | 14 | 92 | 32.2 | 80.5 | 0.00 | 0.00 | 0.00 | 68 | 798.3 |
| 20260505033751 | 15 | 92 | 32.2 | 80.5 | 0.00 | 0.00 | 0.00 | 68 | 798.3 |
| 20260505032741 | 15 | 92 | 32.2 | 80.5 | 0.00 | 0.00 | 0.00 | 69 | 798.3 |
| 20260505031732 | 13 | 92 | 32.2 | 80.5 | 0.00 | 0.00 | 0.00 | 68 | 798.4 |
| 20260505030720 | 13 | 92 | 32.2 | 80.5 | 0.00 | 0.00 | 0.00 | 68 | 798.3 |
| 20260505025711 | 15 | 92 | 32.2 | 80.5 | 0.00 | 0.00 | 0.00 | 69 | 798.3 |
| 20260505024657 | 13 | 92 | 32.2 | 80.5 | 0.00 | 0.00 | 0.00 | 68 | 798.3 |
| 20260505022627 | 13 | 92 | 32.2 | 80.5 | 0.00 | 0.00 | 0.00 | 68 | 798.4 |
| 20260505021611 | 14 | 92 | 32.2 | 80.5 | 0.00 | 0.00 | 0.00 | 68 | 798.4 |
| 20260505014524 | 14 | 92 | 32.2 | 80.5 | 0.00 | 0.00 | 0.00 | 69 | 798.4 |
| 20260505013509 | 14 | 92 | 32.2 | 80.5 | 0.00 | 0.00 | 0.00 | 70 | 798.3 |
| 20260505012453 | 14 | 92 | 32.2 | 80.5 | 0.00 | 0.00 | 0.00 | 69 | 798.2 |
| 20260505011438 | 13 | 92 | 32.2 | 80.5 | 0.00 | 0.00 | 0.00 | 69 | 798.2 |
| 20260505010424 | 14 | 92 | 32.2 | 80.5 | 0.00 | 0.00 | 0.00 | 69 | 798.0 |
| 20260505004355 | 14 | 92 | 32.2 | 80.5 | 0.00 | 0.00 | 0.00 | 69 | 797.9 |
| 20260505002324 | 18 | 92 | 32.2 | 80.5 | 0.00 | 0.00 | 0.00 | 69 | 797.6 |
| 20260505001309 | 18 | 92 | 32.2 | 80.5 | 0.00 | 0.00 | 0.00 | 69 | 797.5 |
| 20260505000253 | 15 | 92 | 32.2 | 80.5 | 0.00 | 0.00 | 0.00 | 69 | 797.4 |
| 20260504235237 | 13 | 92 | 32.2 | 80.5 | 0.00 | 0.00 | 0.00 | 71 | 797.4 |
| 20260504234223 | 8 | 92 | 32.2 | 80.5 | 0.00 | 0.00 | 0.00 | 69 | 797.4 |
| 20260504233207 | 8 | 92 | 32.2 | 80.5 | 0.00 | 0.00 | 0.00 | 70 | 797.3 |
| 20260504232151 | 7 | 92 | 32.2 | 80.5 | 0.00 | 0.00 | 0.00 | 69 | 797.2 |
| 20260504231137 | 7 | 92 | 32.2 | 80.5 | 0.00 | 0.00 | 0.00 | 71 | 797.2 |
| 20260504230122 | 7 | 92 | 32.2 | 80.5 | 0.00 | 0.00 | 0.00 | 70 | 797.1 |
| 20260504225107 | 6 | 92 | 32.2 | 80.5 | 0.00 | 0.00 | 0.00 | 70 | 797.0 |